time, beta470, beta532, beta650
yyyy/mm/dd HH:MM:SS.fff, counts, counts, counts
2023/06/10 04:00:04.043, 125, 188, 132
2023/06/10 04:00:05.179, 137, 184, 126
2023/06/10 04:00:06.299, 124, 187, 128
2023/06/10 04:00:07.435, 127, 201, 135
2023/06/10 04:00:08.571, 122, 175, 126
2023/06/10 04:00:09.691, 128, 181, 128
2023/06/10 04:00:10.827, 126, 185, 128
2023/06/10 04:00:11.963, 125, 181, 121
2023/06/10 04:00:13.083, 126, 188, 127
2023/06/10 04:00:14.218, 126, 224, 123
2023/06/10 04:00:15.355, 129, 184, 121
2023/06/10 04:00:16.475, 126, 180, 122
2023/06/10 04:00:17.611, 133, 177, 122
2023/06/10 04:00:18.746, 129, 187, 129
2023/06/10 04:00:19.866, 137, 179, 125
2023/06/10 04:00:21.002, 130, 181, 126
2023/06/10 04:00:22.138, 123, 189, 129
2023/06/10 04:00:23.257, 124, 180, 124
2023/06/10 04:00:24.394, 122, 170, 124
2023/06/10 04:00:25.513, 130, 171, 127
2023/06/10 04:00:26.650, 122, 178, 123
2023/06/10 04:00:27.786, 125, 298, 123
2023/06/10 04:00:28.905, 144, 190, 134
2023/06/10 04:00:30.042, 131, 184, 132
2023/06/10 04:00:31.178, 127, 191, 139
2023/06/10 04:00:32.298, 126, 186, 130
2023/06/10 04:00:33.433, 132, 181, 132
2023/06/10 04:00:34.569, 131, 186, 129
2023/06/10 04:00:35.689, 130, 175, 130
2023/06/10 04:00:36.825, 134, 180, 125
2023/06/10 04:00:37.945, 130, 176, 137
2023/06/10 04:00:39.081, 126, 181, 130
2023/06/10 04:00:40.217, 129, 178, 124
2023/06/10 04:00:41.337, 131, 183, 119
2023/06/10 04:00:42.473, 143, 175, 126
2023/06/10 04:00:43.608, 189, 175, 126
2023/06/10 04:00:44.729, 133, 188, 129
2023/06/10 04:00:45.865, 128, 181, 127
2023/06/10 04:00:47.001, 127, 202, 130
2023/06/10 04:00:48.121, 129, 172, 119
2023/06/10 04:00:49.256, 148, 164, 121
2023/06/10 04:00:50.392, 167, 180, 125
2023/06/10 04:00:51.512, 134, 176, 126
2023/06/10 04:00:52.648, 123, 181, 126
2023/06/10 04:00:53.784, 125, 176, 125
2023/06/10 04:00:54.904, 126, 181, 125
2023/06/10 04:00:56.040, 128, 181, 125
2023/06/10 04:00:57.176, 130, 183, 133
2023/06/10 04:00:58.296, 130, 178, 128
2023/06/10 04:00:59.432, 126, 170, 128
2023/06/10 04:01:00.568, 143, 179, 137
2023/06/10 04:01:01.687, 144, 186, 121
2023/06/10 04:01:02.823, 135, 171, 117
2023/06/10 04:01:03.959, 132, 182, 126
2023/06/10 04:01:05.079, 135, 188, 131
2023/06/10 04:01:06.215, 137, 269, 129
2023/06/10 04:01:07.351, 134, 193, 129
2023/06/10 04:01:08.471, 147, 185, 130
2023/06/10 04:01:09.607, 128, 186, 130
2023/06/10 04:01:10.727, 133, 183, 133
2023/06/10 04:01:11.862, 132, 182, 128
2023/06/10 04:01:12.999, 136, 185, 127
2023/06/10 04:01:14.119, 134, 191, 131
2023/06/10 04:01:15.255, 138, 191, 127
2023/06/10 04:01:16.391, 135, 190, 128
2023/06/10 04:01:17.510, 134, 197, 130
2023/06/10 04:01:18.647, 139, 199, 137
2023/06/10 04:01:19.782, 140, 205, 137
2023/06/10 04:01:20.902, 139, 188, 136
2023/06/10 04:01:22.038, 133, 184, 135
2023/06/10 04:01:23.174, 131, 186, 130
2023/06/10 04:01:24.294, 134, 208, 134
2023/06/10 04:01:25.430, 137, 205, 131
2023/06/10 04:01:26.566, 144, 195, 131
2023/06/10 04:01:27.686, 133, 199, 132
2023/06/10 04:01:28.822, 135, 201, 132
2023/06/10 04:01:29.958, 136, 192, 142
2023/06/10 04:01:31.078, 139, 190, 135
2023/06/10 04:01:32.213, 139, 193, 134
2023/06/10 04:01:33.333, 139, 194, 133
2023/06/10 04:01:34.470, 128, 190, 126
2023/06/10 04:01:35.605, 129, 178, 134
2023/06/10 04:01:36.725, 136, 187, 127
2023/06/10 04:01:37.861, 144, 203, 136
2023/06/10 04:01:38.997, 148, 194, 127
2023/06/10 04:01:40.117, 145, 192, 133
2023/06/10 04:01:41.253, 135, 196, 132
2023/06/10 04:01:42.388, 134, 195, 142
2023/06/10 04:01:43.509, 136, 188, 142
2023/06/10 04:01:44.645, 125, 192, 132
2023/06/10 04:01:45.781, 126, 182, 132
2023/06/10 04:01:46.901, 127, 187, 137
2023/06/10 04:01:48.036, 134, 187, 131
2023/06/10 04:01:49.173, 127, 195, 128
2023/06/10 04:01:50.293, 128, 188, 130
2023/06/10 04:01:51.428, 123, 180, 124
2023/06/10 04:01:52.564, 140, 182, 130
2023/06/10 04:01:53.684, 130, 198, 133
2023/06/10 04:01:54.820, 139, 199, 131
2023/06/10 04:01:55.940, 140, 185, 130
2023/06/10 04:01:57.076, 135, 197, 126
2023/06/10 04:01:58.212, 144, 202, 131
2023/06/10 04:01:59.332, 143, 185, 131
2023/06/10 04:02:00.467, 134, 188, 129
2023/06/10 04:02:01.604, 144, 182, 131
2023/06/10 04:02:02.724, 132, 193, 133
2023/06/10 04:02:03.859, 131, 220, 128
2023/06/10 04:02:04.996, 129, 204, 133
2023/06/10 04:02:06.115, 122, 211, 136
2023/06/10 04:02:07.251, 125, 186, 138
2023/06/10 04:02:08.387, 126, 187, 139
2023/06/10 04:02:09.507, 135, 177, 132
2023/06/10 04:02:10.643, 138, 176, 129
2023/06/10 04:02:11.779, 130, 177, 127
2023/06/10 04:02:12.899, 131, 179, 131
2023/06/10 04:02:14.035, 139, 188, 126
2023/06/10 04:02:15.170, 161, 195, 129
2023/06/10 04:02:16.291, 134, 192, 125
2023/06/10 04:02:17.427, 131, 187, 122
2023/06/10 04:02:18.562, 124, 184, 126
2023/06/10 04:02:19.683, 125, 197, 123
2023/06/10 04:02:20.819, 137, 189, 130
2023/06/10 04:02:21.955, 132, 187, 125
2023/06/10 04:02:23.074, 134, 186, 128
2023/06/10 04:02:24.210, 128, 194, 126
2023/06/10 04:02:25.330, 123, 190, 120
2023/06/10 04:02:26.466, 129, 190, 120
2023/06/10 04:02:27.602, 133, 186, 131
2023/06/10 04:02:28.722, 132, 183, 127
2023/06/10 04:02:29.857, 126, 179, 129
2023/06/10 04:02:30.994, 126, 186, 125
2023/06/10 04:02:32.114, 131, 192, 120
2023/06/10 04:02:33.250, 130, 183, 128
2023/06/10 04:02:34.385, 135, 184, 126
2023/06/10 04:02:35.506, 134, 179, 127
2023/06/10 04:02:36.641, 138, 173, 120
2023/06/10 04:02:37.778, 128, 175, 127
2023/06/10 04:02:38.898, 126, 174, 121
2023/06/10 04:02:40.033, 124, 179, 124
2023/06/10 04:02:41.153, 125, 173, 126
2023/06/10 04:02:42.289, 131, 178, 136
2023/06/10 04:02:43.425, 126, 175, 126
2023/06/10 04:02:44.545, 118, 178, 123
2023/06/10 04:02:45.680, 122, 173, 125
2023/06/10 04:02:46.816, 122, 181, 124
2023/06/10 04:02:47.936, 121, 180, 127
2023/06/10 04:02:49.073, 119, 176, 125
2023/06/10 04:02:50.209, 119, 175, 131
2023/06/10 04:02:51.328, 121, 171, 126
2023/06/10 04:02:52.465, 118, 177, 126
2023/06/10 04:02:53.600, 116, 178, 126
2023/06/10 04:02:54.720, 123, 176, 125
2023/06/10 04:02:55.856, 119, 174, 147
2023/06/10 04:02:56.992, 122, 178, 148
2023/06/10 04:02:58.112, 123, 179, 126
2023/06/10 04:02:59.248, 121, 180, 121
2023/06/10 04:03:00.384, 115, 174, 126
2023/06/10 04:03:01.504, 122, 179, 121
2023/06/10 04:03:02.640, 118, 179, 121
2023/06/10 04:03:03.776, 122, 175, 122
2023/06/10 04:03:04.896, 124, 175, 127
2023/06/10 04:03:06.032, 127, 171, 123
2023/06/10 04:03:07.167, 125, 171, 119
2023/06/10 04:03:08.288, 118, 163, 121
2023/06/10 04:03:09.423, 114, 165, 121
2023/06/10 04:03:10.543, 124, 173, 126
2023/06/10 04:03:11.679, 126, 175, 129
2023/06/10 04:03:12.815, 121, 177, 122
2023/06/10 04:03:13.935, 123, 179, 119
2023/06/10 04:03:15.071, 122, 173, 122
2023/06/10 04:03:16.207, 131, 169, 124
2023/06/10 04:03:17.327, 128, 164, 120
2023/06/10 04:03:18.463, 115, 164, 124
2023/06/10 04:03:19.599, 123, 167, 126
2023/06/10 04:03:20.719, 122, 168, 124
2023/06/10 04:03:21.854, 121, 168, 121
2023/06/10 04:03:22.990, 121, 166, 122
2023/06/10 04:03:24.111, 122, 167, 117
2023/06/10 04:03:25.246, 113, 173, 118
2023/06/10 04:03:26.382, 112, 162, 123
2023/06/10 04:03:27.502, 118, 170, 127
2023/06/10 04:03:28.638, 117, 181, 118
2023/06/10 04:03:29.774, 158, 173, 124
2023/06/10 04:03:30.894, 114, 174, 122
2023/06/10 04:03:32.030, 114, 174, 125
2023/06/10 04:03:33.150, 130, 176, 120
2023/06/10 04:03:34.286, 120, 161, 124
2023/06/10 04:03:35.422, 121, 164, 124
2023/06/10 04:03:36.541, 113, 165, 118
2023/06/10 04:03:37.678, 118, 162, 119
2023/06/10 04:03:38.814, 125, 169, 117
2023/06/10 04:03:39.934, 117, 161, 120
2023/06/10 04:03:41.070, 117, 162, 117
2023/06/10 04:03:42.205, 119, 166, 119
2023/06/10 04:03:43.325, 115, 168, 115
2023/06/10 04:03:44.461, 117, 163, 121
2023/06/10 04:03:45.597, 122, 171, 116
2023/06/10 04:03:46.717, 127, 169, 116
2023/06/10 04:03:47.853, 119, 170, 117
2023/06/10 04:03:48.989, 122, 170, 115
2023/06/10 04:03:50.108, 123, 167, 116
2023/06/10 04:03:51.245, 119, 171, 122
2023/06/10 04:03:52.380, 112, 172, 118
2023/06/10 04:03:53.501, 111, 170, 110
2023/06/10 04:03:54.637, 111, 167, 121
2023/06/10 04:03:55.757, 111, 174, 119
2023/06/10 04:03:56.892, 115, 176, 120
2023/06/10 04:03:58.028, 116, 177, 120
2023/06/10 04:03:59.148, 118, 162, 142
2023/06/10 04:04:00.284, 122, 163, 436
2023/06/10 04:04:01.420, 114, 163, 485
2023/06/10 04:04:02.540, 117, 165, 158
2023/06/10 04:04:03.676, 111, 160, 119
2023/06/10 04:04:04.811, 113, 164, 113
2023/06/10 04:04:05.932, 110, 160, 115
2023/06/10 04:04:07.067, 116, 160, 113
2023/06/10 04:04:08.203, 118, 162, 110
2023/06/10 04:04:09.323, 115, 164, 118
2023/06/10 04:04:10.460, 113, 170, 111
2023/06/10 04:04:11.596, 116, 165, 117
2023/06/10 04:04:12.715, 116, 164, 116
2023/06/10 04:04:13.851, 112, 156, 115
2023/06/10 04:04:14.987, 117, 153, 113
2023/06/10 04:04:16.107, 114, 156, 120
2023/06/10 04:04:17.243, 117, 154, 111
2023/06/10 04:04:18.379, 115, 153, 108
2023/06/10 04:04:19.499, 115, 165, 111
2023/06/10 04:04:20.635, 117, 170, 117
2023/06/10 04:04:21.771, 111, 165, 117
2023/06/10 04:04:22.891, 106, 160, 111
2023/06/10 04:04:24.027, 111, 162, 113
2023/06/10 04:04:25.163, 113, 162, 111
2023/06/10 04:04:26.283, 116, 164, 117
2023/06/10 04:04:27.419, 115, 156, 115
2023/06/10 04:04:28.538, 117, 155, 115
2023/06/10 04:04:29.674, 120, 157, 110
2023/06/10 04:04:30.810, 112, 158, 117
2023/06/10 04:04:31.930, 108, 155, 111
2023/06/10 04:04:33.066, 113, 155, 115
2023/06/10 04:04:34.202, 118, 157, 114
2023/06/10 04:04:35.322, 109, 155, 112
2023/06/10 04:04:36.458, 105, 160, 113
2023/06/10 04:04:37.594, 107, 147, 111
2023/06/10 04:04:38.714, 112, 147, 110
2023/06/10 04:04:39.849, 105, 160, 115
2023/06/10 04:04:40.986, 109, 159, 109
2023/06/10 04:04:42.106, 107, 154, 113
2023/06/10 04:04:43.242, 107, 154, 109
2023/06/10 04:04:44.377, 114, 154, 109
2023/06/10 04:04:45.497, 110, 151, 115
2023/06/10 04:04:46.633, 108, 148, 111
2023/06/10 04:04:47.753, 111, 148, 106
2023/06/10 04:04:48.889, 113, 145, 112
2023/06/10 04:04:50.025, 110, 155, 111
2023/06/10 04:04:51.145, 111, 155, 105
2023/06/10 04:04:52.281, 105, 154, 110
2023/06/10 04:04:53.417, 108, 168, 113
2023/06/10 04:04:54.537, 106, 150, 109
2023/06/10 04:04:55.673, 107, 147, 114
2023/06/10 04:04:56.809, 112, 144, 109
2023/06/10 04:04:57.928, 111, 146, 111
2023/06/10 04:04:59.064, 107, 149, 110
2023/06/10 04:05:00.200, 107, 148, 113
2023/06/10 04:05:01.320, 140, 147, 111
2023/06/10 04:05:02.456, 115, 148, 106
2023/06/10 04:05:03.592, 116, 155, 109
2023/06/10 04:05:04.712, 122, 158, 111
2023/06/10 04:05:05.848, 115, 150, 111
2023/06/10 04:05:06.984, 115, 151, 107
2023/06/10 04:05:08.104, 112, 154, 113
2023/06/10 04:05:09.240, 109, 150, 111
2023/06/10 04:05:10.376, 111, 151, 107
2023/06/10 04:05:11.496, 112, 152, 108
2023/06/10 04:05:12.632, 109, 154, 112
2023/06/10 04:05:13.768, 105, 155, 111
2023/06/10 04:05:14.888, 112, 147, 110
2023/06/10 04:05:16.024, 104, 154, 111
2023/06/10 04:05:17.159, 106, 153, 113
2023/06/10 04:05:18.279, 107, 151, 111
2023/06/10 04:05:19.415, 106, 147, 116
2023/06/10 04:05:20.551, 108, 147, 121
2023/06/10 04:05:21.671, 108, 152, 112
2023/06/10 04:05:22.807, 106, 152, 117
2023/06/10 04:05:23.926, 105, 145, 109
2023/06/10 04:05:25.063, 104, 144, 108
2023/06/10 04:05:26.199, 108, 148, 116
2023/06/10 04:05:27.318, 111, 150, 108
2023/06/10 04:05:28.455, 116, 149, 113
2023/06/10 04:05:29.590, 102, 148, 111
2023/06/10 04:05:30.710, 101, 148, 109
2023/06/10 04:05:31.846, 106, 144, 113
2023/06/10 04:05:32.982, 105, 150, 111
2023/06/10 04:05:34.102, 104, 146, 110
2023/06/10 04:05:35.238, 104, 144, 109
2023/06/10 04:05:36.374, 108, 141, 105
2023/06/10 04:05:37.494, 110, 140, 110
2023/06/10 04:05:38.630, 106, 147, 112
2023/06/10 04:05:39.749, 106, 143, 104
2023/06/10 04:05:40.885, 105, 142, 109
2023/06/10 04:05:42.022, 105, 143, 113
2023/06/10 04:05:43.142, 113, 146, 109
2023/06/10 04:05:44.277, 103, 142, 105
2023/06/10 04:05:45.414, 101, 150, 104
2023/06/10 04:05:46.533, 109, 151, 115
2023/06/10 04:05:47.670, 105, 153, 107
2023/06/10 04:05:48.805, 109, 151, 105
2023/06/10 04:05:49.925, 108, 146, 111
2023/06/10 04:05:51.061, 109, 143, 106
2023/06/10 04:05:52.196, 108, 144, 111
2023/06/10 04:05:53.317, 105, 146, 111
2023/06/10 04:05:54.453, 103, 150, 102
2023/06/10 04:05:55.589, 104, 147, 108
2023/06/10 04:05:56.709, 101, 140, 112
2023/06/10 04:05:57.844, 105, 141, 106
2023/06/10 04:05:58.981, 101, 141, 104
2023/06/10 04:06:00.100, 105, 145, 112
2023/06/10 04:06:01.236, 101, 142, 111
2023/06/10 04:06:02.372, 104, 138, 108
2023/06/10 04:06:03.492, 100, 136, 108
2023/06/10 04:06:04.628, 104, 141, 108
2023/06/10 04:06:05.763, 104, 141, 110
2023/06/10 04:06:06.884, 102, 146, 105
2023/06/10 04:06:08.020, 98, 168, 107
2023/06/10 04:06:09.140, 102, 180, 107
2023/06/10 04:06:10.276, 106, 158, 109
2023/06/10 04:06:11.412, 100, 142, 116
2023/06/10 04:06:12.532, 106, 140, 106
2023/06/10 04:06:13.667, 118, 138, 108
2023/06/10 04:06:14.804, 128, 137, 102
2023/06/10 04:06:15.924, 120, 141, 104
2023/06/10 04:06:17.060, 106, 138, 108
2023/06/10 04:06:18.195, 105, 140, 103
2023/06/10 04:06:19.315, 105, 143, 107
2023/06/10 04:06:20.451, 104, 143, 105
2023/06/10 04:06:21.587, 99, 146, 107
2023/06/10 04:06:22.707, 102, 147, 108
2023/06/10 04:06:23.843, 105, 149, 105
2023/06/10 04:06:24.979, 106, 145, 107
2023/06/10 04:06:26.099, 108, 141, 105
2023/06/10 04:06:27.234, 105, 139, 106
2023/06/10 04:06:28.355, 104, 140, 109
2023/06/10 04:06:29.490, 105, 141, 107
2023/06/10 04:06:30.627, 101, 141, 105
2023/06/10 04:06:31.747, 99, 141, 104
2023/06/10 04:06:32.882, 103, 143, 102
2023/06/10 04:06:34.018, 105, 138, 105
2023/06/10 04:06:35.138, 103, 138, 114
2023/06/10 04:06:36.274, 103, 141, 105
2023/06/10 04:06:37.410, 106, 145, 108
2023/06/10 04:06:38.530, 106, 144, 104
2023/06/10 04:06:39.666, 102, 141, 105
2023/06/10 04:06:40.803, 104, 139, 113
2023/06/10 04:06:41.922, 101, 139, 106
2023/06/10 04:06:43.058, 104, 141, 108
2023/06/10 04:06:44.194, 100, 142, 105
2023/06/10 04:06:45.313, 104, 140, 108
2023/06/10 04:06:46.450, 99, 137, 105
2023/06/10 04:06:47.569, 105, 135, 105
2023/06/10 04:06:48.705, 103, 140, 104
2023/06/10 04:06:49.841, 102, 135, 104
2023/06/10 04:06:50.961, 99, 137, 107
2023/06/10 04:06:52.097, 102, 139, 103
2023/06/10 04:06:53.233, 104, 135, 106
2023/06/10 04:06:54.353, 104, 134, 101
2023/06/10 04:06:55.489, 100, 137, 105
2023/06/10 04:06:56.625, 100, 142, 106
2023/06/10 04:06:57.744, 102, 136, 102
2023/06/10 04:06:58.881, 103, 134, 103
2023/06/10 04:07:00.017, 104, 145, 106
2023/06/10 04:07:01.137, 99, 147, 104
2023/06/10 04:07:02.273, 94, 144, 108
2023/06/10 04:07:03.392, 97, 147, 102
2023/06/10 04:07:04.529, 100, 142, 104
2023/06/10 04:07:05.664, 103, 137, 101
2023/06/10 04:07:06.784, 105, 139, 100
2023/06/10 04:07:07.920, 98, 144, 98
2023/06/10 04:07:09.056, 100, 139, 102
2023/06/10 04:07:10.176, 99, 136, 109
2023/06/10 04:07:11.312, 97, 136, 103
2023/06/10 04:07:12.432, 99, 136, 100
2023/06/10 04:07:13.568, 97, 130, 101
2023/06/10 04:07:14.704, 95, 131, 111
2023/06/10 04:07:15.824, 99, 135, 103
2023/06/10 04:07:16.960, 105, 135, 106
2023/06/10 04:07:18.095, 112, 134, 103
2023/06/10 04:07:19.215, 103, 133, 107
2023/06/10 04:07:20.352, 100, 131, 105
2023/06/10 04:07:21.471, 102, 137, 98
2023/06/10 04:07:22.607, 101, 134, 102
2023/06/10 04:07:23.743, 103, 132, 103
2023/06/10 04:07:24.863, 97, 135, 104
2023/06/10 04:07:25.999, 97, 130, 104
2023/06/10 04:07:27.135, 101, 139, 102
2023/06/10 04:07:28.254, 96, 138, 99
2023/06/10 04:07:29.391, 99, 142, 101
2023/06/10 04:07:30.511, 90, 136, 104
2023/06/10 04:07:31.647, 96, 134, 101
2023/06/10 04:07:32.767, 98, 136, 106
2023/06/10 04:07:33.903, 101, 136, 97
2023/06/10 04:07:35.039, 97, 132, 105
2023/06/10 04:07:36.158, 100, 131, 106
2023/06/10 04:07:37.294, 101, 131, 104
2023/06/10 04:07:38.430, 101, 131, 103
2023/06/10 04:07:39.551, 97, 130, 101
2023/06/10 04:07:40.686, 98, 131, 96
2023/06/10 04:07:41.806, 101, 152, 100
2023/06/10 04:07:42.942, 98, 135, 101
2023/06/10 04:07:44.078, 101, 133, 99
2023/06/10 04:07:45.198, 98, 130, 99
2023/06/10 04:07:46.334, 101, 135, 97
2023/06/10 04:07:47.453, 98, 134, 98
2023/06/10 04:07:48.589, 98, 129, 100
2023/06/10 04:07:49.726, 99, 128, 102
2023/06/10 04:07:50.846, 97, 132, 99
2023/06/10 04:07:51.982, 102, 134, 98
2023/06/10 04:07:53.101, 102, 135, 100
2023/06/10 04:07:54.237, 101, 140, 102
2023/06/10 04:07:55.373, 98, 137, 100
2023/06/10 04:07:56.493, 97, 138, 99
2023/06/10 04:07:57.629, 101, 136, 100
2023/06/10 04:07:58.749, 101, 132, 101
2023/06/10 04:07:59.885, 98, 130, 103
2023/06/10 04:08:01.021, 97, 135, 99
2023/06/10 04:08:02.140, 102, 130, 105
2023/06/10 04:08:03.277, 99, 132, 104
2023/06/10 04:08:04.396, 96, 136, 115
2023/06/10 04:08:05.532, 98, 132, 102
2023/06/10 04:08:06.669, 102, 123, 105
2023/06/10 04:08:07.788, 93, 128, 104
2023/06/10 04:08:08.924, 94, 132, 100
2023/06/10 04:08:10.060, 94, 132, 102
2023/06/10 04:08:11.180, 97, 132, 105
2023/06/10 04:08:12.316, 104, 131, 102
2023/06/10 04:08:13.436, 97, 132, 101
2023/06/10 04:08:14.572, 99, 131, 104
2023/06/10 04:08:15.708, 97, 139, 109
2023/06/10 04:08:16.828, 99, 151, 103
2023/06/10 04:08:17.964, 95, 130, 102
2023/06/10 04:08:19.084, 97, 125, 98
2023/06/10 04:08:20.219, 98, 133, 101
2023/06/10 04:08:21.355, 94, 131, 102
2023/06/10 04:08:22.476, 95, 133, 101
2023/06/10 04:08:23.611, 98, 128, 100
2023/06/10 04:08:24.731, 95, 129, 100
2023/06/10 04:08:25.866, 97, 131, 96
2023/06/10 04:08:26.987, 98, 126, 95
2023/06/10 04:08:28.123, 93, 126, 97
2023/06/10 04:08:29.259, 97, 128, 98
2023/06/10 04:08:30.379, 96, 123, 97
2023/06/10 04:08:31.515, 92, 127, 101
2023/06/10 04:08:32.635, 96, 133, 99
2023/06/10 04:08:33.771, 96, 127, 99
2023/06/10 04:08:34.891, 96, 131, 101
2023/06/10 04:08:36.027, 98, 130, 96
2023/06/10 04:08:37.162, 100, 128, 101
2023/06/10 04:08:38.283, 93, 127, 99
2023/06/10 04:08:39.418, 96, 127, 95
2023/06/10 04:08:40.538, 95, 126, 102
2023/06/10 04:08:41.674, 94, 135, 103
2023/06/10 04:08:42.794, 94, 130, 95
2023/06/10 04:08:43.930, 96, 124, 102
2023/06/10 04:08:45.066, 97, 126, 98
2023/06/10 04:08:46.186, 96, 129, 97
2023/06/10 04:08:47.321, 95, 130, 102
2023/06/10 04:08:48.442, 93, 125, 98
2023/06/10 04:08:49.578, 95, 128, 104
2023/06/10 04:08:50.713, 95, 127, 101
2023/06/10 04:08:51.834, 95, 130, 98
2023/06/10 04:08:52.970, 96, 129, 101
2023/06/10 04:08:54.090, 95, 125, 98
2023/06/10 04:08:55.225, 96, 126, 98
2023/06/10 04:08:56.345, 98, 125, 102
2023/06/10 04:08:57.481, 97, 128, 101
2023/06/10 04:08:58.617, 99, 134, 97
2023/06/10 04:08:59.737, 96, 132, 101
2023/06/10 04:09:00.873, 94, 131, 98
2023/06/10 04:09:01.993, 91, 131, 100
2023/06/10 04:09:03.129, 98, 128, 102
2023/06/10 04:09:04.248, 98, 125, 98
2023/06/10 04:09:05.385, 91, 121, 98
2023/06/10 04:09:06.521, 93, 129, 99
2023/06/10 04:09:07.640, 92, 126, 99
2023/06/10 04:09:08.776, 91, 127, 101
2023/06/10 04:09:09.896, 94, 128, 100
2023/06/10 04:09:11.032, 95, 126, 98
2023/06/10 04:09:12.152, 95, 127, 98
2023/06/10 04:09:13.287, 92, 129, 100
2023/06/10 04:09:14.424, 91, 128, 95
2023/06/10 04:09:15.543, 97, 160, 98
2023/06/10 04:09:16.680, 96, 321, 95
2023/06/10 04:09:17.800, 95, 123, 97
2023/06/10 04:09:18.936, 96, 126, 99
2023/06/10 04:09:20.055, 98, 125, 100
2023/06/10 04:09:21.192, 98, 143, 99
2023/06/10 04:09:22.328, 93, 130, 100
2023/06/10 04:09:23.448, 95, 127, 98
2023/06/10 04:09:24.583, 93, 130, 100
2023/06/10 04:09:25.704, 96, 131, 99
2023/06/10 04:09:26.839, 93, 124, 100
2023/06/10 04:09:27.959, 109, 129, 99
2023/06/10 04:09:29.095, 95, 131, 101
2023/06/10 04:09:30.231, 99, 128, 99
2023/06/10 04:09:31.351, 103, 127, 99
2023/06/10 04:09:32.487, 101, 123, 99
2023/06/10 04:09:33.607, 100, 126, 99
2023/06/10 04:09:34.743, 90, 124, 98
2023/06/10 04:09:35.863, 92, 124, 101
2023/06/10 04:09:36.999, 94, 129, 101
2023/06/10 04:09:38.135, 93, 125, 100
2023/06/10 04:09:39.255, 92, 128, 96
2023/06/10 04:09:40.390, 98, 127, 100
2023/06/10 04:09:41.511, 93, 123, 99
2023/06/10 04:09:42.646, 96, 118, 97
2023/06/10 04:09:43.782, 95, 125, 100
2023/06/10 04:09:44.902, 96, 126, 94
2023/06/10 04:09:46.038, 97, 124, 96
2023/06/10 04:09:47.158, 97, 124, 97
2023/06/10 04:09:48.294, 97, 128, 98
2023/06/10 04:09:49.414, 91, 122, 101
2023/06/10 04:09:50.549, 94, 123, 97
2023/06/10 04:09:51.685, 95, 121, 100
2023/06/10 04:09:52.806, 95, 126, 99
2023/06/10 04:09:53.941, 94, 126, 95
2023/06/10 04:09:55.062, 95, 124, 99
2023/06/10 04:09:56.198, 96, 123, 101
2023/06/10 04:09:57.317, 91, 121, 94
2023/06/10 04:09:58.453, 93, 124, 93
2023/06/10 04:09:59.573, 97, 127, 98
2023/06/10 04:10:00.709, 95, 125, 95
2023/06/10 04:10:01.845, 97, 122, 94
2023/06/10 04:10:02.965, 93, 123, 97
2023/06/10 04:10:04.101, 94, 126, 96
2023/06/10 04:10:05.220, 95, 125, 95
2023/06/10 04:10:06.357, 90, 125, 98
2023/06/10 04:10:07.477, 94, 120, 93
2023/06/10 04:10:08.612, 95, 124, 94
2023/06/10 04:10:09.733, 92, 125, 96
2023/06/10 04:10:10.869, 92, 122, 98
2023/06/10 04:10:12.004, 92, 119, 97
2023/06/10 04:10:13.124, 90, 126, 99
2023/06/10 04:10:14.260, 91, 125, 100
2023/06/10 04:10:15.380, 92, 123, 97
2023/06/10 04:10:16.516, 96, 124, 97
2023/06/10 04:10:17.636, 90, 125, 97
2023/06/10 04:10:18.772, 90, 122, 98
2023/06/10 04:10:19.892, 93, 123, 94
2023/06/10 04:10:21.028, 94, 127, 95
2023/06/10 04:10:22.164, 93, 127, 97
2023/06/10 04:10:23.284, 95, 131, 99
2023/06/10 04:10:24.420, 94, 134, 102
2023/06/10 04:10:25.539, 95, 129, 98
2023/06/10 04:10:26.676, 91, 122, 101
2023/06/10 04:10:27.796, 92, 125, 99
2023/06/10 04:10:28.932, 92, 122, 96
2023/06/10 04:10:30.051, 99, 121, 98
2023/06/10 04:10:31.187, 94, 121, 100
2023/06/10 04:10:32.323, 92, 120, 97
2023/06/10 04:10:33.443, 91, 124, 96
2023/06/10 04:10:34.578, 94, 120, 98
2023/06/10 04:10:35.699, 96, 126, 95
2023/06/10 04:10:36.835, 94, 119, 93
2023/06/10 04:10:37.955, 92, 124, 98
2023/06/10 04:10:39.091, 91, 121, 92
2023/06/10 04:10:40.211, 95, 124, 94
2023/06/10 04:10:41.347, 92, 128, 95
2023/06/10 04:10:42.483, 92, 121, 93
2023/06/10 04:10:43.602, 93, 119, 97
2023/06/10 04:10:44.738, 90, 117, 93
2023/06/10 04:10:45.858, 90, 122, 99
2023/06/10 04:10:46.994, 92, 119, 99
2023/06/10 04:10:48.114, 93, 120, 93
2023/06/10 04:10:49.250, 93, 121, 96
2023/06/10 04:10:50.370, 93, 123, 92
2023/06/10 04:10:51.506, 88, 122, 97
2023/06/10 04:10:52.641, 93, 121, 96
2023/06/10 04:10:53.762, 93, 121, 95
2023/06/10 04:10:54.898, 91, 125, 91
2023/06/10 04:10:56.018, 91, 119, 95
2023/06/10 04:10:57.153, 89, 121, 97
2023/06/10 04:10:58.274, 93, 123, 97
2023/06/10 04:10:59.410, 93, 118, 95
2023/06/10 04:11:00.529, 94, 123, 98
2023/06/10 04:11:01.665, 90, 119, 94
2023/06/10 04:11:02.801, 91, 120, 94
2023/06/10 04:11:03.921, 91, 120, 93
2023/06/10 04:11:05.057, 104, 124, 100
2023/06/10 04:11:06.177, 94, 119, 93
2023/06/10 04:11:07.313, 93, 125, 103
2023/06/10 04:11:08.433, 94, 123, 97
2023/06/10 04:11:09.569, 93, 116, 98
2023/06/10 04:11:10.704, 92, 122, 93
2023/06/10 04:11:11.825, 90, 124, 94
2023/06/10 04:11:12.960, 94, 120, 98
2023/06/10 04:11:14.081, 92, 122, 96
2023/06/10 04:11:15.216, 88, 122, 96
2023/06/10 04:11:16.337, 89, 121, 100
2023/06/10 04:11:17.472, 91, 118, 93
2023/06/10 04:11:18.608, 88, 117, 102
2023/06/10 04:11:19.728, 95, 121, 96
2023/06/10 04:11:20.864, 92, 119, 100
2023/06/10 04:11:21.984, 91, 119, 97
2023/06/10 04:11:23.120, 91, 122, 97
2023/06/10 04:11:24.240, 94, 119, 102
2023/06/10 04:11:25.375, 91, 122, 95
2023/06/10 04:11:26.496, 94, 124, 95
2023/06/10 04:11:27.631, 93, 124, 95